Volver al catálogo

COSMOS 2499 DEB

LostPO
NORAD 49934·DEBRIS·🇷🇺 Russia

Lanzado May 23, 2014 desde Plesetsk Cosmodrome

Loading…

Próximos Pases (próximas 24 horas)

TLE

ObsoletoSource: Space-Track

Época: Jun 26, 2023, 23:14 UTC

1 49934U 14028R   23177.96811375  .00000739  00000-0  22098-2 0  9996
2 49934  82.5076 259.4437 0233700 349.1217  10.4887 12.97571055 65983

Sigue COSMOS 2499 DEB en tiempo real con AllMySat

Download on the App Store